Location: Stockholm
(59.3330°N, 18.0500°E)
Time: 10:30:51
(UTC+01:00)

FENGYUN 1C DEB - Pass Details

Date: 09 December 2023
Orbit: 841 x 915 km, 98.8° (Epoch: 27 February)

Event Time Altitude Azimuth Distance (km) Brightness Sun altitude
Exits shadow 20:32:49 14° 341° (NNW) 2,187 ? -41.0°
Drops below altitude 10° 20:33:31 10° 341° (NNW) 2,459 ? -41.0°
Sets 20:35:57 0° 342° (NNW) 3,424 ? -41.3°
